Location: McLaughlin
(0.0000°N, 0.0000°E)
Time: 14:01:02
(UTC+00:00)

Hubble Space Telescope - Pass Details

Date: 28 June 2019
Orbit: 536 x 540 km, 28.5° (Epoch: 15 July)

Event Time Altitude Azimuth Distance (km) Brightness Sun altitude
Exits shadow 03:52:13 10° 127° (SE) 1,764 3.7 -29.8°
Drops below altitude 10° 03:52:20 10° 127° (SE) 1,807 3.7 -29.8°
Sets 03:54:32 0° 124° (SE) 2,670 4.7 -29.3°
